Location: Basel
(47.5580°N, 7.5957°E)
Time: 00:55:28
(UTC+01:00)

ISS - Visible Passes

Search period start: 08 December 2021 00:00
Search period end: 18 December 2021 00:00
Orbit: 417 x 422 km, 51.6° (Epoch: 07 December)

Date Brightness Start Highest point End Pass type
(mag) Time Alt. Az. Time Alt. Az. Time Alt. Az.
08 Dec -1.2 18:03:59 10° W 18:06:42 22° SW 18:09:24 10° SSE visible
09 Dec -1.8 17:16:20 10° WNW 17:19:26 34° SW 17:22:32 10° SSE visible
11 Dec -0.4 17:19:09 10° W 17:21:07 15° SW 17:23:04 10° S visible
